1495832400.72,46336,14.69,73890.0,-0.25,-1.13,-1.21,0,*62
1495832401.96,46337,14.69,73898.3,-0.25,-1.13,-1.13,0,*62
1495832403.19,46338,14.69,73892.3,-0.25,-1.13,-1.13,0,*6D
1495832404.43,46339,14.69,73888.0,-0.25,-1.13,-1.13,0,*6C
1495832405.67,46340,14.69,73890.0,-0.25,-1.09,-1.13,0,*69
1495832406.91,46341,14.69,73886.0,-0.25,-1.13,-1.01,0,*60
1495832408.15,46342,14.69,73886.0,-0.25,-1.13,-1.09,0,*6B
1495832409.37,46343,14.69,73888.0,-0.25,-1.13,-1.21,0,*60
1495832410.58,46344,14.69,73892.3,-0.25,-1.21,-1.13,0,*67
1495832411.8,46345,14.69,73902.0,-0.27,-1.17,-1.17,0,*65
1495832413.06,46346,14.69,73888.5,-0.23,-1.13,-1.01,0,*61
1495832414.32,46347,14.69,73888.0,-0.23,-1.09,-1.01,0,*6B
1495832415.56,46348,14.69,73890.8,-0.25,-1.01,-1.09,0,*62
1495832416.8,46349,14.69,73894.3,-0.25,-1.01,-1.01,0,*6B
1495832418.04,46350,14.69,73898.0,-0.25,-1.01,-1.09,0,*6B
1495832419.3,46351,14.69,73894.8,-0.23,-1.09,-1.09,0,*64
1495832420.56,46352,14.69,73892.8,-0.23,-1.01,-1.01,0,*67
1495832421.82,46353,14.69,73902.0,-0.23,-1.01,-1.01,0,*66
1495832423.06,46354,14.69,73906.3,-0.25,-1.01,-1.01,0,*67
1495832424.3,46355,14.69,73906.0,-0.25,-1.01,-1.09,0,*6E
1495832425.56,46356,14.69,73884.5,-0.23,-1.09,-1.01,0,*6B
1495832426.79,46357,14.69,73892.8,-0.25,-1.09,-1.09,0,*64
1495832428.06,46358,14.69,73898.8,-0.23,-1.01,-1.01,0,*6D
1495832429.3,46359,14.69,73898.3,-0.25,-1.01,-1.01,0,*6A
1495832430.56,46360,14.69,73900.0,-0.23,-1.01,-1.01,0,*66
1495832431.8,46361,14.69,73904.0,-0.25,-1.01,-1.01,0,*61
1495832433.03,46362,14.69,73908.8,-0.25,-1.01,-0.97,0,*5C
1495832434.28,46363,14.69,73900.0,-0.25,-1.01,-1.01,0,*63
1495832435.54,46364,14.69,73896.5,-0.23,-1.01,-1.01,0,*62
1495832436.78,46365,14.69,73906.8,-0.25,-1.01,-1.01,0,*65
1495832438.04,46366,14.69,73906.0,-0.23,-1.01,-1.01,0,*60
1495832439.3,46367,14.69,73908.3,-0.23,-1.09,-1.01,0,*69
1495832440.56,46368,14.69,73904.0,-0.23,-1.01,-1.01,0,*6E
1495832441.81,46369,14.69,73904.3,-0.23,-0.97,-1.01,0,*51
1495832443.07,46370,14.69,73902.0,-0.23,-1.09,-1.13,0,*6C
1495832444.33,46371,14.69,73906.0,-0.23,-1.13,-1.13,0,*66
1495832445.55,46372,14.69,73908.8,-0.23,-1.21,-1.21,0,*65
1495832446.79,46373,14.69,73908.0,-0.25,-1.13,-1.09,0,*69
1495832448.05,46374,14.69,73910.0,-0.23,-1.01,-1.01,0,*63
1495832449.31,46375,14.69,73904.5,-0.23,-1.01,-1.01,0,*62
1495832450.56,46376,14.69,73906.8,-0.23,-1.09,-1.09,0,*61
1495832451.82,46377,14.69,73908.0,-0.23,-1.09,-1.01,0,*68
1495832453.08,46378,14.69,73904.8,-0.23,-1.01,-1.01,0,*6F
1495832454.34,46379,14.69,73904.3,-0.23,-1.09,-1.13,0,*65
1495832455.59,46380,14.69,73904.3,-0.23,-1.09,-1.09,0,*68
1495832456.85,46381,14.69,73908.8,-0.23,-1.09,-1.01,0,*61
1495832458.11,46382,14.69,73906.0,-0.23,-1.09,-1.13,0,*61
1495832459.34,46383,14.69,73910.3,-0.23,-1.21,-1.13,0,*6A
1495832460.6,46384,14.69,73912.3,-0.23,-1.13,-1.13,0,*6C
1495832461.86,46385,14.69,73906.5,-0.23,-1.13,-1.09,0,*66
1495832463.1,46386,14.69,73906.3,-0.25,-1.09,-1.09,0,*68
1495832464.34,46387,14.69,73916.0,-0.23,-1.13,-1.21,0,*6E
1495832465.59,46388,14.69,73908.0,-0.23,-1.13,-1.13,0,*60
1495832466.81,46389,14.69,73894.5,-0.23,-1.33,-1.33,0,*61
1495832468.02,46390,14.69,73874.8,-0.23,-1.33,-1.33,0,*69
1495832469.23,46391,14.69,73882.0,-0.23,-1.33,-1.33,0,*68
1495832470.47,46392,14.69,73888.5,-0.23,-1.35,-1.33,0,*6D
1495832471.68,46393,14.63,73894.0,-0.25,-1.43,-1.33,0,*6B
1495832472.92,46394,14.69,73904.0,-0.23,-1.35,-1.33,0,*6B
1495832474.18,46395,14.69,73900.0,-0.23,-1.47,-1.35,0,*69
1495832475.45,46396,14.69,73894.8,-0.23,-1.43,-1.43,0,*6F
1495832476.71,46397,14.69,73892.5,-0.23,-1.43,-1.35,0,*6F
1495832477.97,46398,14.69,73898.8,-0.23,-1.35,-1.35,0,*61
1495832479.16,46399,14.69,73898.5,-0.21,-1.21,-1.33,0,*61
1495832480.35,46400,14.69,73900.3,-0.21,-1.21,-1.21,0,*65
1495832481.57,46401,14.69,73896.5,-0.21,-1.33,-1.39,0,*6E
1495832482.78,46402,14.69,73900.8,-0.23,-1.33,-1.33,0,*65
1495832484.0,46403,14.69,73908.0,-0.23,-1.33,-1.25,0,*63
1495832485.21,46404,14.69,73906.8,-0.23,-1.25,-1.21,0,*67
1495832486.4,46405,14.69,73904.3,-0.21,-1.21,-1.21,0,*60
1495832487.61,46406,14.69,73904.5,-0.23,-1.33,-1.25,0,*66
1495832488.85,46407,14.69,73900.3,-0.23,-1.25,-1.13,0,*65
1495832490.06,46408,14.69,73898.0,-0.23,-1.21,-1.21,0,*6F
1495832491.28,46409,14.69,73892.5,-0.23,-1.21,-1.21,0,*6E
1495832492.5,46410,14.69,73894.5,-0.23,-1.21,-1.21,0,*66
1495832493.72,46411,14.69,73894.3,-0.25,-1.25,-1.35,0,*60
1495832494.96,46412,14.63,73894.0,-0.23,-1.25,-1.35,0,*65
1495832496.17,46413,14.69,73888.3,-0.23,-1.21,-1.25,0,*61
1495832497.36,46414,14.69,73896.5,-0.21,-1.21,-1.29,0,*68
1495832498.55,46415,14.69,73902.8,-0.21,-1.21,-1.21,0,*61
1495832499.74,46416,14.69,73900.5,-0.21,-1.21,-1.29,0,*6A
1495832500.94,46417,14.69,73906.0,-0.21,-1.21,-1.21,0,*63
1495832502.16,46418,14.69,73902.5,-0.17,-1.17,-1.17,0,*69
1495832503.35,46419,14.69,73898.3,-0.21,-1.29,-1.21,0,*65
1495832504.56,46420,14.69,73904.0,-0.23,-1.25,-1.25,0,*65
1495832505.77,46421,14.63,73898.8,-0.23,-1.33,-1.25,0,*63
1495832506.97,46422,14.69,73902.3,-0.21,-1.21,-1.21,0,*65
1495832508.18,46423,14.63,73898.3,-0.23,-1.21,-1.25,0,*62
1495832509.37,46424,14.69,73908.0,-0.21,-1.21,-1.29,0,*6B
1495832510.59,46425,14.69,73902.3,-0.21,-1.33,-1.39,0,*68
1495832511.8,46426,14.69,73896.5,-0.21,-1.33,-1.43,0,*66
1495832512.99,46427,14.69,73898.5,-0.21,-1.33,-1.33,0,*60
1495832514.17,46428,14.69,73900.3,-0.21,-1.29,-1.33,0,*64
1495832515.36,46429,14.69,73900.0,-0.21,-1.21,-1.29,0,*66
1495832516.55,46430,14.69,73900.5,-0.21,-1.33,-1.33,0,*66
1495832517.74,46431,14.69,73900.3,-0.21,-1.29,-1.33,0,*6C
1495832518.92,46432,14.69,73904.8,-0.21,-1.29,-1.33,0,*6F
1495832520.14,46433,14.69,73910.3,-0.21,-1.29,-1.39,0,*64
1495832521.33,46434,14.69,73896.5,-0.21,-1.29,-1.29,0,*62
1495832522.54,46435,14.69,73894.0,-0.23,-1.25,-1.25,0,*61
1495832523.75,46436,14.63,73894.3,-0.23,-1.33,-1.25,0,*65
1495832524.97,46437,14.69,73894.0,-0.23,-1.21,-1.21,0,*63
1495832526.21,46438,14.69,73890.5,-0.23,-1.13,-1.21,0,*6D
1495832527.42,46439,14.69,73888.5,-0.23,-1.25,-1.33,0,*6A
1495832528.63,46440,14.69,73892.8,-0.23,-1.33,-1.25,0,*64
1495832529.84,46441,14.69,73896.3,-0.23,-1.25,-1.25,0,*62
1495832531.05,46442,14.69,73906.5,-0.23,-1.33,-1.33,0,*61
1495832532.24,46443,14.69,73906.3,-0.21,-1.21,-1.21,0,*62
1495832533.46,46444,14.69,73892.0,-0.21,-1.29,-1.39,0,*64
1495832534.65,46445,14.69,73890.8,-0.21,-1.29,-1.33,0,*6F
1495832535.84,46446,14.69,73900.8,-0.21,-1.21,-1.29,0,*6F
1495832537.08,46447,14.69,73906.0,-0.23,-1.33,-1.35,0,*62
1495832538.29,46448,14.69,73898.3,-0.21,-1.33,-1.39,0,*63
1495832539.51,46449,14.69,73902.0,-0.21,-1.33,-1.39,0,*62
1495832540.73,46450,14.69,73904.3,-0.17,-1.33,-1.33,0,*65
1495832541.95,46451,14.69,73906.8,-0.23,-1.33,-1.33,0,*63
1495832543.16,46452,14.69,73910.5,-0.21,-1.39,-1.33,0,*68
1495832544.4,46453,14.69,73914.3,-0.21,-1.39,-1.39,0,*63
1495832545.62,46454,14.63,73908.8,-0.21,-1.33,-1.39,0,*6E
1495832546.84,46455,14.69,73908.5,-0.21,-1.33,-1.43,0,*62
1495832548.02,46456,14.69,73908.3,-0.21,-1.29,-1.33,0,*6D
1495832549.21,46457,14.69,73904.5,-0.21,-1.29,-1.33,0,*6C
1495832550.4,46458,14.69,73908.3,-0.21,-1.21,-1.29,0,*60
1495832551.61,46459,14.69,73906.3,-0.23,-1.33,-1.33,0,*6B
1495832552.8,46460,14.69,73904.0,-0.21,-1.33,-1.33,0,*63
1495832554.01,46461,14.69,73904.5,-0.21,-1.39,-1.33,0,*68
1495832555.26,46462,14.69,73904.3,-0.21,-1.39,-1.39,0,*61
1495832556.52,46463,14.69,73906.5,-0.23,-1.35,-1.35,0,*62
1495832557.78,46464,14.69,73906.0,-0.23,-1.35,-1.35,0,*65
1495832559.04,46465,14.69,73908.5,-0.23,-1.35,-1.35,0,*64
1495832560.31,46466,14.69,73912.3,-0.23,-1.43,-1.47,0,*63
1495832561.55,46467,14.69,73906.0,-0.23,-1.47,-1.55,0,*65
1495832562.81,46468,14.69,73904.3,-0.23,-1.47,-1.47,0,*69
1495832563.99,46469,14.69,73902.3,-0.21,-1.51,-1.51,0,*6A
1495832565.2,46470,14.69,73906.3,-0.23,-1.55,-1.59,0,*6C
1495832566.45,46471,14.69,73906.0,-0.25,-1.43,-1.43,0,*67
1495832567.68,46472,14.69,73906.3,-0.23,-1.35,-1.33,0,*64
1495832568.92,46473,14.63,73906.8,-0.25,-1.35,-1.35,0,*65
1495832570.19,46474,14.69,73908.8,-0.23,-1.43,-1.47,0,*60
1495832571.45,46475,14.69,73910.3,-0.23,-1.35,-1.35,0,*65
1495832572.69,46476,14.69,73912.5,-0.23,-1.25,-1.35,0,*67
1495832573.9,46477,14.69,73910.3,-0.23,-1.25,-1.33,0,*60
1495832575.09,46478,14.69,73912.8,-0.21,-1.29,-1.29,0,*6A
1495832576.28,46479,14.63,73912.5,-0.21,-1.21,-1.21,0,*6B
1495832577.5,46480,14.69,73918.8,-0.21,-1.33,-1.39,0,*67
1495832578.73,46481,14.69,73916.0,-0.23,-1.55,-1.47,0,*6D
1495832579.95,46482,14.69,73914.3,-0.23,-1.67,-1.67,0,*6D
1495832581.14,46483,14.63,73904.8,-0.25,-1.67,-1.67,0,*6A
1495832582.41,46484,14.69,73908.3,-0.23,-1.43,-1.47,0,*6F
1495832583.67,46485,14.69,73906.0,-0.23,-1.35,-1.35,0,*6A
1495832584.91,46486,14.63,73900.0,-0.23,-1.33,-1.35,0,*6F
1495832586.15,46487,14.69,73896.0,-0.23,-1.25,-1.35,0,*69
1495832587.42,46488,14.63,73896.5,-0.23,-1.35,-1.43,0,*66
1495832588.68,46489,14.69,73904.8,-0.23,-1.35,-1.43,0,*67
1495832589.92,46490,14.69,73908.5,-0.23,-1.25,-1.35,0,*6F
1495832591.11,46491,14.69,73912.3,-0.25,-1.25,-1.33,0,*6E
1495832592.31,46492,14.69,73910.3,-0.23,-1.25,-1.33,0,*6B
1495832593.53,46493,14.63,73908.5,-0.23,-1.33,-1.33,0,*6D
1495832594.77,46494,14.69,73910.0,-0.23,-1.33,-1.35,0,*6C
1495832596.03,46495,14.69,73908.0,-0.23,-1.43,-1.43,0,*6B
1495832597.28,46496,14.69,73908.3,-0.23,-1.33,-1.43,0,*6F
1495832598.51,46497,14.69,73910.3,-0.23,-1.25,-1.35,0,*68
1495832599.71,46498,14.69,73906.0,-0.25,-1.21,-1.25,0,*64
1495832600.92,46499,14.69,73906.5,-0.23,-1.25,-1.25,0,*67
1495832602.11,46500,14.69,73906.3,-0.21,-1.29,-1.21,0,*6C
1495832603.32,46501,14.63,73904.0,-0.23,-1.25,-1.25,0,*67
1495832604.52,46502,14.69,73910.8,-0.23,-1.25,-1.25,0,*64
1495832605.73,46503,14.69,73904.5,-0.23,-1.25,-1.25,0,*65
1495832606.94,46504,14.69,73898.5,-0.23,-1.21,-1.25,0,*66
1495832608.15,46505,14.63,73892.8,-0.23,-1.25,-1.33,0,*64
1495832609.37,46506,14.69,73900.8,-0.23,-1.21,-1.21,0,*60
1495832610.63,46507,14.63,73906.8,-0.23,-1.13,-1.13,0,*61
1495832611.87,46508,14.69,73916.3,-0.25,-1.09,-1.09,0,*68
1495832613.13,46509,14.69,73914.5,-0.23,-1.13,-1.13,0,*6F
1495832614.38,46510,14.63,73906.8,-0.23,-1.13,-1.09,0,*6C
1495832615.64,46511,14.69,73904.3,-0.23,-1.13,-1.13,0,*66
1495832616.86,46512,14.69,73910.3,-0.23,-1.21,-1.21,0,*65
1495832618.07,46513,14.63,73914.8,-0.21,-1.09,-1.17,0,*69
1495832619.28,46514,14.69,73916.0,-0.21,-1.17,-1.09,0,*6E
1495832620.54,46515,14.69,73908.3,-0.23,-1.13,-1.13,0,*62
1495832621.8,46516,14.69,73906.8,-0.23,-1.01,-1.09,0,*69
1495832623.06,46517,14.63,73900.5,-0.23,-1.09,-1.09,0,*60
1495832624.29,46518,14.69,73906.3,-0.21,-1.09,-1.09,0,*6D
1495832625.52,46519,14.63,73900.5,-0.21,-0.97,-0.97,0,*6C
1495832626.78,46520,14.69,73902.5,-0.23,-1.01,-1.09,0,*6C
1495832628.03,46521,14.69,73906.5,-0.23,-1.13,-1.13,0,*65
1495832629.27,46522,14.63,73906.0,-0.21,-1.05,-1.09,0,*68
1495832630.51,46523,14.69,73906.0,-0.21,-1.05,-1.05,0,*65
1495832631.77,46524,14.69,73906.0,-0.23,-1.09,-1.09,0,*60
1495832633.03,46525,14.69,73904.5,-0.23,-1.09,-1.01,0,*69
1495832634.28,46526,14.69,73908.3,-0.23,-1.09,-1.01,0,*6A
1495832635.55,46527,14.69,73904.5,-0.23,-1.01,-1.09,0,*6B
1495832636.78,46528,14.63,73906.5,-0.21,-0.97,-1.05,0,*54
1495832638.01,46529,14.69,73908.3,-0.21,-1.09,-1.09,0,*6F
1495832639.22,46530,14.69,73906.3,-0.21,-1.09,-1.17,0,*68
1495832640.46,46531,14.69,73908.8,-0.21,-1.05,-1.09,0,*6A
1495832641.65,46532,14.63,73910.0,-0.21,-1.17,-1.17,0,*65
1495832642.84,46533,14.63,73906.8,-0.21,-1.21,-1.29,0,*6C
1495832644.03,46534,14.69,73912.5,-0.21,-1.21,-1.29,0,*6B
1495832645.25,46535,14.63,73904.3,-0.17,-1.29,-1.29,0,*67
1495832646.44,46536,14.69,73910.0,-0.21,-1.21,-1.33,0,*62
1495832647.63,46537,14.69,73908.0,-0.21,-1.21,-1.21,0,*60
1495832648.83,46538,14.63,73906.0,-0.21,-1.17,-1.21,0,*6A
1495832650.02,46539,14.63,73906.0,-0.21,-1.17,-1.29,0,*63
1495832651.21,46540,14.69,73908.5,-0.21,-1.17,-1.29,0,*6D
1495832652.4,46541,14.63,73904.0,-0.21,-1.21,-1.29,0,*69
1495832653.62,46542,14.63,73906.5,-0.21,-1.33,-1.39,0,*68
1495832654.8,46543,14.69,73910.0,-0.21,-1.33,-1.33,0,*63
1495832655.99,46544,14.63,73906.5,-0.21,-1.21,-1.33,0,*67
1495832657.18,46545,14.63,73904.5,-0.21,-1.21,-1.21,0,*65
1495832658.43,46546,14.63,73910.5,-0.17,-1.09,-1.17,0,*6C
1495832659.64,46547,14.63,73908.0,-0.21,-1.09,-1.17,0,*68
1495832660.88,46548,14.69,73910.5,-0.17,-1.09,-1.17,0,*62
1495832662.07,46549,14.63,73902.0,-0.21,-1.29,-1.29,0,*69
1495832663.3,46550,14.63,73904.3,-0.17,-1.21,-1.21,0,*64
1495832664.52,46551,14.63,73902.3,-0.17,-1.21,-1.21,0,*65
1495832665.72,46552,14.69,73908.8,-0.21,-1.21,-1.21,0,*63
1495832666.94,46553,14.63,73904.5,-0.17,-1.33,-1.29,0,*6C
1495832668.13,46554,14.63,73894.8,-0.21,-1.29,-1.21,0,*6D
1495832669.35,46555,14.69,73902.8,-0.17,-1.29,-1.33,0,*6A
1495832670.54,46556,14.63,73910.8,-0.21,-1.29,-1.29,0,*67
1495832671.73,46557,14.69,73904.0,-0.21,-1.17,-1.17,0,*66
1495832672.97,46558,14.69,73914.0,-0.21,-1.09,-1.09,0,*69
1495832674.2,46559,14.63,73922.5,-0.21,-1.09,-1.05,0,*64
1495832675.47,46560,14.63,73910.3,-0.17,-0.97,-1.05,0,*5D
1495832676.74,46561,14.63,73892.8,-0.17,-1.09,-1.05,0,*6A
1495832678.01,46562,14.63,73906.3,-0.17,-1.05,-1.09,0,*69
1495832679.2,46563,14.69,73914.0,-0.21,-1.21,-1.29,0,*69
1495832680.42,46564,14.63,73910.8,-0.21,-1.33,-1.39,0,*6C
1495832681.64,46565,14.63,73908.3,-0.17,-1.33,-1.29,0,*69
1495832682.86,46566,14.63,73906.8,-0.17,-1.33,-1.33,0,*61
1495832684.06,46567,14.63,73906.0,-0.21,-1.21,-1.21,0,*65
1495832685.28,46568,14.69,73896.3,-0.17,-1.17,-1.17,0,*6F
1495832686.55,46569,14.69,73884.0,-0.17,-1.09,-1.09,0,*6E
1495832687.78,46570,14.63,73882.8,-0.21,-1.09,-1.05,0,*6F
1495832688.97,46571,14.69,73892.0,-0.21,-1.17,-1.17,0,*62
1495832690.18,46572,14.63,73886.0,-0.21,-1.09,-1.17,0,*6E
1495832691.38,46573,14.63,73882.0,-0.21,-1.21,-1.21,0,*60
1495832692.6,46574,14.69,73884.0,-0.17,-1.21,-1.29,0,*6A
1495832693.81,46575,14.63,73890.3,-0.21,-1.21,-1.09,0,*6C
1495832695.08,46576,14.63,73902.3,-0.17,-1.09,-1.05,0,*6C
1495832696.34,46577,14.63,73902.3,-0.17,-0.97,-0.97,0,*61
1495832697.6,46578,14.63,73898.0,-0.23,-1.09,-1.09,0,*69
1495832698.86,46579,14.69,73902.3,-0.17,-0.97,-0.97,0,*6F
1495832700.12,46580,14.69,73906.0,-0.17,-0.97,-0.97,0,*69
1495832701.4,46581,14.63,73894.3,-0.17,-1.05,-1.05,0,*68
1495832702.63,46582,14.69,73898.5,-0.21,-1.09,-1.09,0,*6E
1495832703.81,46583,14.69,73912.5,-0.21,-1.29,-1.33,0,*64
1495832705.0,46584,14.63,73912.3,-0.21,-1.63,-1.51,0,*69
1495832706.18,46585,14.63,73900.5,-0.21,-1.75,-1.51,0,*6F
1495832707.37,46586,14.63,73908.0,-0.21,-1.33,-1.29,0,*61
1495832708.62,46587,14.63,73912.3,-0.17,-1.39,-1.33,0,*64
1495832709.86,46588,14.63,73914.5,-0.17,-1.51,-1.43,0,*62
1495832711.04,46589,14.63,73916.5,-0.21,-1.51,-1.55,0,*61
1495832712.23,46590,14.69,73916.8,-0.21,-1.55,-1.75,0,*6F
1495832713.41,46591,14.69,73912.8,-0.21,-1.63,-1.79,0,*67
1495832714.66,46592,14.63,73900.3,-0.17,-1.39,-1.63,0,*65
1495832715.85,46593,14.63,73906.3,-0.21,-1.29,-1.51,0,*61
1495832717.04,46594,14.69,73910.3,-0.21,-1.33,-1.51,0,*6D
1495832718.3,46595,14.63,73910.5,-0.17,-1.29,-1.39,0,*6C
1495832719.52,46596,14.63,73910.8,-0.17,-1.29,-1.51,0,*61
1495832720.73,46597,14.63,73912.5,-0.21,-1.39,-1.55,0,*60
1495832721.99,46598,14.63,73914.3,-0.17,-1.39,-1.51,0,*6E
1495832723.2,46599,14.69,73918.0,-0.21,-1.43,-1.63,0,*66
1495832724.45,46600,14.69,73916.0,-0.17,-1.39,-1.51,0,*6C
1495832725.67,46601,14.63,73910.0,-0.17,-1.51,-1.67,0,*66
1495832726.95,46602,14.63,73912.3,-0.17,-1.43,-1.39,0,*6D
1495832728.14,46603,14.63,73912.3,-0.21,-1.21,-1.21,0,*64
1495832729.33,46604,14.69,73918.0,-0.21,-1.29,-1.29,0,*63
1495832730.55,46605,14.63,73910.3,-0.17,-1.33,-1.29,0,*6C
1495832731.74,46606,14.63,73908.3,-0.21,-1.17,-1.17,0,*61
1495832732.93,46607,14.63,73910.0,-0.21,-1.17,-1.17,0,*60
1495832734.2,46608,14.69,73912.8,-0.17,-1.09,-1.09,0,*6A
1495832735.47,46609,14.63,73910.8,-0.17,-1.09,-1.05,0,*67
1495832736.71,46610,14.63,73910.5,-0.21,-1.05,-1.09,0,*6A
1495832737.95,46611,14.69,73914.3,-0.21,-1.05,-1.05,0,*67
1495832739.21,46612,14.69,73918.3,-0.17,-0.97,-0.97,0,*61
1495832740.49,46613,14.63,73912.5,-0.17,-1.05,-1.05,0,*60
1495832741.75,46614,14.69,73916.8,-0.17,-1.09,-1.09,0,*67
1495832743.02,46615,14.63,73914.8,-0.17,-1.05,-1.09,0,*6A
1495832744.28,46616,14.63,73918.5,-0.17,-0.97,-0.97,0,*65
1495832745.52,46617,14.69,73918.3,-0.21,-1.05,-1.05,0,*61
1495832746.8,46618,14.63,73916.3,-0.17,-1.05,-1.09,0,*67
1495832748.02,46619,14.63,73912.3,-0.21,-0.97,-0.97,0,*6F
1495832749.26,46620,14.63,73916.3,-0.21,-1.05,-1.09,0,*69
1495832750.5,46621,14.63,73918.0,-0.17,-1.09,-1.17,0,*6E
1495832751.75,46622,14.63,73916.0,-0.17,-1.17,-1.09,0,*6D
1495832753.02,46623,14.63,73914.5,-0.17,-1.09,-1.09,0,*63
1495832754.27,46624,14.63,73912.8,-0.17,-1.17,-1.09,0,*6B
1495832755.54,46625,14.63,73914.8,-0.17,-1.09,-1.05,0,*69
1495832756.79,46626,14.63,73918.8,-0.17,-1.05,-1.17,0,*65
1495832758.02,46627,14.63,73916.8,-0.17,-1.17,-1.21,0,*62
1495832759.23,46628,14.69,73916.8,-0.21,-1.09,-1.17,0,*62
1495832760.45,46629,14.63,73914.0,-0.17,-1.21,-1.29,0,*61
1495832761.68,46630,14.63,73914.8,-0.17,-1.21,-1.21,0,*61
1495832762.91,46631,14.63,73916.8,-0.17,-1.17,-1.21,0,*65
1495832764.1,46632,14.63,73914.5,-0.21,-1.17,-1.17,0,*66
1495832765.34,46633,14.63,73918.5,-0.17,-1.09,-1.21,0,*68
1495832766.57,46634,14.63,73914.5,-0.17,-1.17,-1.21,0,*60
1495832767.8,46635,14.63,73908.8,-0.17,-1.33,-1.21,0,*67
1495832769.03,46636,14.63,73898.3,-0.17,-1.21,-1.21,0,*67
1495832770.25,46637,14.69,73900.0,-0.17,-1.29,-1.17,0,*6B
1495832771.48,46638,14.63,73906.5,-0.17,-1.17,-1.17,0,*69
1495832772.73,46639,14.63,73918.3,-0.17,-1.17,-1.05,0,*6B
1495832773.97,46640,14.69,73920.5,-0.17,-1.09,-1.17,0,*69
1495832775.22,46641,14.63,73914.0,-0.17,-1.09,-1.17,0,*68
1495832776.46,46642,14.63,73910.5,-0.17,-1.09,-1.17,0,*6B
1495832777.69,46643,14.63,73912.0,-0.17,-1.17,-1.21,0,*60
1495832778.91,46644,14.63,73912.0,-0.17,-1.29,-1.29,0,*62
1495832780.16,46645,14.63,73912.3,-0.17,-1.39,-1.33,0,*69
1495832781.41,46646,14.63,73910.8,-0.17,-1.33,-1.39,0,*6A
1495832782.66,46647,14.63,73914.3,-0.17,-1.33,-1.43,0,*66
1495832783.91,46648,14.63,73914.5,-0.17,-1.33,-1.43,0,*69
1495832785.14,46649,14.63,73920.3,-0.17,-1.33,-1.33,0,*6F
1495832786.39,46650,14.63,73916.0,-0.17,-1.33,-1.39,0,*6D
1495832787.67,46651,14.69,73916.3,-0.17,-1.39,-1.43,0,*6B
1495832788.94,46652,14.63,73914.5,-0.17,-1.39,-1.39,0,*65
1495832790.19,46653,14.69,73916.3,-0.15,-1.39,-1.39,0,*66
1495832791.44,46654,14.63,73914.8,-0.15,-1.47,-1.39,0,*68
1495832792.62,46655,14.63,73914.8,-0.21,-1.67,-1.63,0,*63
1495832793.84,46656,14.63,73910.0,-0.17,-1.55,-1.55,0,*61
1495832795.06,46657,14.63,73910.0,-0.17,-1.55,-1.55,0,*60
1495832796.24,46658,14.63,73910.5,-0.21,-1.55,-1.55,0,*6A
1495832797.46,46659,14.63,73902.5,-0.17,-1.55,-1.55,0,*6E
1495832798.64,46660,14.63,73906.0,-0.21,-1.55,-1.55,0,*61
1495832799.82,46661,14.63,73906.8,-0.21,-1.51,-1.55,0,*64
1495832801.04,46662,14.63,73904.3,-0.17,-1.55,-1.55,0,*66
1495832802.25,46663,14.63,73902.5,-0.21,-1.43,-1.51,0,*61
1495832803.43,46664,14.63,73906.5,-0.21,-1.55,-1.51,0,*61
1495832804.62,46665,14.63,73900.8,-0.21,-1.55,-1.55,0,*64
1495832805.8,46666,14.63,73896.5,-0.21,-1.63,-1.55,0,*62
1495832806.98,46667,14.63,73896.8,-0.21,-1.63,-1.55,0,*63
1495832808.22,46668,14.63,73894.3,-0.21,-1.43,-1.43,0,*69
1495832809.43,46669,14.69,73898.3,-0.21,-1.39,-1.33,0,*62
1495832810.64,46670,14.63,73896.5,-0.23,-1.25,-1.33,0,*65
1495832811.85,46671,14.63,73898.3,-0.23,-1.25,-1.33,0,*64
1495832813.09,46672,14.63,73896.0,-0.23,-1.33,-1.35,0,*66
1495832814.33,46673,14.63,73892.8,-0.23,-1.35,-1.33,0,*67
1495832815.54,46674,14.63,73896.5,-0.21,-1.35,-1.33,0,*62
1495832816.72,46675,14.63,73898.5,-0.21,-1.33,-1.33,0,*65
1495832817.91,46676,14.63,73896.8,-0.21,-1.33,-1.33,0,*66
1495832819.09,46677,14.63,73894.5,-0.21,-1.33,-1.33,0,*67
1495832820.3,46678,14.63,73892.8,-0.23,-1.25,-1.33,0,*6D
1495832821.52,46679,14.63,73890.5,-0.23,-1.21,-1.21,0,*6B
1495832822.73,46680,14.63,73894.3,-0.23,-1.21,-1.25,0,*69
1495832823.95,46681,14.63,73898.8,-0.23,-1.21,-1.25,0,*68
1495832825.16,46682,14.63,73896.0,-0.23,-1.21,-1.21,0,*6F
1495832826.38,46683,14.63,73898.8,-0.23,-1.21,-1.21,0,*6E
1495832827.58,46684,14.63,73900.0,-0.21,-1.17,-1.17,0,*6B
1495832828.81,46685,14.63,73900.5,-0.23,-1.21,-1.13,0,*69
1495832830.04,46686,14.63,73912.8,-0.21,-1.09,-1.09,0,*69
1495832831.28,46687,14.63,73910.0,-0.21,-1.09,-1.05,0,*64
1495832832.51,46688,14.69,73908.5,-0.21,-1.05,-1.09,0,*6B
1495832833.76,46689,14.63,73904.8,-0.17,-1.09,-1.17,0,*6C
1495832834.99,46690,14.63,73902.5,-0.21,-1.09,-1.05,0,*62
1495832836.24,46691,14.63,73904.3,-0.21,-1.05,-1.05,0,*6F
1495832837.47,46692,14.63,73906.8,-0.21,-0.97,-1.05,0,*56
1495832838.71,46693,14.63,73904.5,-0.21,-1.05,-1.09,0,*61
1495832839.95,46694,14.69,73908.5,-0.21,-1.05,-1.09,0,*66
1495832841.18,46695,14.63,73904.3,-0.21,-0.97,-1.05,0,*51
1495832842.42,46696,14.63,73906.0,-0.21,-1.09,-1.05,0,*64
1495832843.66,46697,14.63,73900.5,-0.21,-1.05,-1.05,0,*69
1495832844.9,46698,14.69,73906.0,-0.21,-1.05,-1.05,0,*66
1495832846.13,46699,14.63,73904.0,-0.21,-0.97,-1.05,0,*5D
1495832847.36,46700,14.63,73906.3,-0.21,-0.97,-1.09,0,*50
1495832848.64,46701,14.63,73906.5,-0.17,-1.05,-1.05,0,*62
1495832849.91,46702,14.63,73904.8,-0.17,-0.97,-1.09,0,*57
1495832851.18,46703,14.63,73904.5,-0.17,-0.97,-1.05,0,*5A
1495832852.4,46704,14.63,73906.3,-0.21,-0.97,-0.97,0,*62
1495832853.64,46705,14.63,73908.8,-0.21,-0.97,-1.05,0,*59
1495832854.89,46706,14.63,73904.0,-0.17,-1.05,-1.17,0,*66
1495832856.14,46707,14.69,73908.0,-0.17,-1.05,-1.17,0,*67
1495832857.4,46708,14.63,73908.8,-0.17,-1.09,-1.09,0,*6B
1495832858.67,46709,14.69,73906.3,-0.17,-1.09,-1.05,0,*66
1495832859.91,46710,14.63,73902.3,-0.21,-0.97,-1.05,0,*5D
1495832861.14,46711,14.69,73900.3,-0.21,-1.05,-0.97,0,*5C
1495832862.38,46712,14.63,73900.5,-0.21,-1.05,-1.05,0,*65
1495832863.62,46713,14.63,73900.5,-0.21,-1.09,-1.05,0,*68
1495832864.89,46714,14.63,73902.3,-0.17,-1.05,-1.05,0,*66
1495832866.16,46715,14.69,73908.3,-0.17,-1.05,-0.97,0,*5D
1495832867.43,46716,14.63,73914.8,-0.17,-0.97,-1.05,0,*5E
1495832868.65,46717,14.63,73908.8,-0.21,-0.97,-0.97,0,*60
1495832869.93,46718,14.63,73908.8,-0.17,-1.05,-1.05,0,*6A
1495832871.19,46719,14.63,73906.0,-0.17,-0.97,-0.97,0,*6B
1495832872.47,46720,14.63,73906.5,-0.17,-1.05,-1.05,0,*61
1495832873.74,46721,14.63,73908.3,-0.17,-1.05,-1.05,0,*60
1495832875.01,46722,14.63,73902.0,-0.17,-1.09,-1.05,0,*6F
1495832876.28,46723,14.63,73898.5,-0.17,-1.05,-1.09,0,*6E
1495832877.56,46724,14.63,73888.8,-0.17,-1.05,-1.05,0,*65
1495832878.82,46725,14.63,73892.3,-0.17,-0.97,-0.97,0,*64
1495832880.08,46726,14.63,73898.8,-0.17,-0.97,-0.97,0,*67
1495832881.35,46727,14.63,73896.5,-0.17,-0.97,-1.05,0,*5C
1495832882.61,46728,14.63,73900.8,-0.17,-0.97,-0.97,0,*69
1495832883.83,46729,14.63,73910.3,-0.21,-0.97,-0.97,0,*6D
1495832885.06,46730,14.63,73908.3,-0.15,-0.93,-0.93,0,*62
1495832886.28,46731,14.63,73888.0,-0.15,-0.93,-0.93,0,*63
1495832887.51,46732,14.63,73884.0,-0.15,-0.97,-0.93,0,*64
1495832888.77,46733,14.63,73896.3,-0.17,-0.97,-0.93,0,*67
1495832890.03,46734,14.63,73902.8,-0.17,-0.97,-0.97,0,*64
1495832891.29,46735,14.63,73896.0,-0.17,-0.97,-0.97,0,*65
1495832892.54,46736,14.63,73896.0,-0.17,-0.93,-0.97,0,*62
1495832893.8,46737,14.63,73908.3,-0.17,-0.93,-0.93,0,*67
1495832895.05,46738,14.63,73910.8,-0.17,-0.93,-0.93,0,*68
1495832896.28,46739,14.63,73910.8,-0.15,-0.89,-0.89,0,*6B
1495832897.51,46740,14.63,73906.3,-0.15,-0.93,-0.89,0,*6E
1495832898.73,46741,14.63,73908.0,-0.15,-0.93,-0.93,0,*64
1495832899.96,46742,14.63,73904.0,-0.15,-0.89,-0.93,0,*6C
1495832901.18,46743,14.63,73900.3,-0.15,-0.89,-0.93,0,*6D
1495832902.41,46744,14.63,73900.3,-0.15,-0.89,-0.93,0,*6A
1495832903.63,46745,14.63,73896.5,-0.15,-0.93,-0.93,0,*60
1495832904.88,46746,14.63,73896.8,-0.13,-0.93,-0.89,0,*6E
1495832906.11,46747,14.63,73902.8,-0.15,-0.89,-0.89,0,*62
1495832907.34,46748,14.63,73904.3,-0.15,-0.89,-0.89,0,*6D
1495832908.57,46749,14.63,73906.0,-0.15,-0.89,-0.89,0,*6C